Home   Weather   Tripoli   Past weeks

Flag for Libya Past Weather in Tripoli, Libya — Yesterday and Last 2 Weeks

Now
59 °F

Passing clouds.


Feels Like: 58 °F
Forecast: 57 / 66 °F
Wind: 7 mph from Northeast

Location: Djerba Mellita

Current Time: Dec 11, 2016 at 8:11:54 am

Latest Report: Dec 11, 2016 at 7:30 am


Visibility: 5 mi

Pressure: 30.24 "Hg

Humidity: 88%

Dew Point: 55 °F

Location of TripoliLocation

Past Weather in Tripoli — Graph

°F

Tripoli Temperature Yesterday

Maximum temperature yesterday: 66 °F (at 10:30 am)
Minimum temperature yesterday: 55 °F (at 8:00 am)
Average temperature yesterday: 62 °F

High & Low Weather Summary for the Past Weeks

 TemperatureHumidityPressure
High72 °F (Dec 4, 3:00 pm)100% (Nov 28, 2:30 am)30.39 "Hg (Nov 28, 2:30 am)
Low48 °F (Dec 3, 4:30 am)33% (Dec 4, 1:00 pm)29.74 "Hg (Nov 28, 4:00 pm)
Average62 °F68%30.13 "Hg
* Reported Nov 26 7:00 am — Dec 11 7:00 am, Tripoli, Weather by CustomWeather, © 2016

Note: Actual official high and low records may vary slightly from our data, if they occured in-between our weather recording intervals... More about our weather records

Advertising

Tripoli Weather History for the Previous 24 Hours

Scroll right to see more
 ConditionsComfort  
Time TempWeatherWind HumidityBarometerVisibility
7:00 am
Sun, Dec 11
61 °FPassing clouds.9 mph83%30.24 "Hg5 mi
6:30 am61 °FPassing clouds.8 mph77%30.27 "Hg5 mi
6:00 am61 °FPassing clouds.8 mph77%30.27 "Hg5 mi
5:30 am61 °FPassing clouds.7 mph77%30.27 "Hg5 mi
5:00 am61 °FPassing clouds.6 mph77%30.27 "Hg5 mi
4:30 am61 °FPassing clouds.6 mph83%30.27 "Hg5 mi
4:00 am61 °FPassing clouds.7 mph83%30.27 "Hg5 mi
3:30 am61 °FPassing clouds.6 mph83%30.27 "Hg5 mi
3:00 am61 °FPassing clouds.6 mph83%30.30 "Hg5 mi
2:30 am63 °FPassing clouds.7 mph77%30.30 "Hg5 mi
2:00 am63 °FPassing clouds.7 mph77%30.30 "Hg5 mi
1:30 am63 °FPassing clouds.8 mph77%30.30 "Hg5 mi
1:00 am63 °FPassing clouds.8 mph83%30.30 "Hg5 mi
12:30 am63 °FPassing clouds.8 mph83%30.30 "Hg5 mi
12:00 am63 °FPassing clouds.8 mph83%30.30 "Hg5 mi
11:30 pm
Sat, Dec 10
63 °FPassing clouds.8 mph77%30.30 "Hg5 mi
11:00 pm63 °FPassing clouds.8 mph83%30.30 "Hg5 mi
10:30 pm63 °FPassing clouds.8 mph83%30.33 "Hg5 mi
10:00 pm63 °FPassing clouds.8 mph83%30.33 "Hg5 mi
9:30 pm63 °FPassing clouds.7 mph83%30.33 "Hg5 mi
9:00 pm63 °FPassing clouds.6 mph83%30.33 "Hg5 mi
8:30 pm63 °FPassing clouds.8 mph83%30.33 "Hg5 mi
8:00 pm63 °FPassing clouds.6 mph83%30.33 "Hg5 mi
7:30 pm63 °FMild.8 mph88%30.30 "HgN/A
7:00 pm63 °FPassing clouds.7 mph88%30.30 "Hg5 mi
6:30 pm63 °FPassing clouds.7 mph88%30.30 "Hg5 mi
6:00 pm64 °FScattered clouds.9 mph83%30.30 "Hg5 mi
5:30 pm64 °FScattered clouds.12 mph83%30.30 "Hg5 mi
5:00 pm66 °FScattered clouds.12 mph78%30.33 "Hg5 mi
4:30 pm66 °FScattered clouds.13 mph78%30.30 "Hg5 mi
4:00 pm66 °FScattered clouds.12 mph78%30.30 "Hg5 mi
3:30 pm64 °FScattered clouds.8 mph83%30.30 "Hg5 mi
3:00 pm64 °FScattered clouds.9 mph83%30.30 "Hg5 mi
2:30 pm66 °FScattered clouds.10 mph83%30.30 "Hg5 mi
2:00 pm64 °FScattered clouds.10 mph83%30.33 "Hg5 mi
1:30 pm64 °FScattered clouds.9 mph83%30.33 "Hg5 mi
1:00 pm63 °FRain. Scattered clouds.10 mph88%30.36 "Hg4 mi
12:30 pm64 °FRain. Scattered clouds.9 mph88%30.36 "Hg5 mi
12:00 pm63 °FRain. Partly sunny.12 mph94%30.36 "Hg4 mi
11:30 am64 °FRain. Partly sunny.13 mph88%30.36 "Hg4 mi
11:00 am66 °FPartly sunny.7 mph78%30.36 "Hg5 mi
10:30 am66 °FPartly sunny.2 mph73%30.36 "Hg5 mi
10:00 am64 °FScattered clouds.No wind78%30.36 "Hg5 mi
9:30 am63 °FPassing clouds.No wind83%30.33 "Hg5 mi
9:00 am59 °FPassing clouds.2 mph88%30.33 "Hg5 mi
8:30 am57 °FPassing clouds.No wind94%30.33 "Hg5 mi
8:00 am55 °FPassing clouds.No wind94%30.33 "Hg5 mi
Weather by CustomWeather, © 2016

See weather overviewHow to use our weather pages